• en France
  • Liste des pays
  • À 7 jours
  • Température de l'eau
  • Carte satellitaire
  • Carte météo
  • Widgets météo
  • user-avatar
    Se connecter

    Météo par heure à Sariwon

    Ce jour, 18 Décembre, Lundi

    Heure Température Précipitation Vent Pression Humidité
    00:00 -7°C° 0 mm 2 m/s 769 mmHg 68%
    01:00 -7°C° 0 mm 2 m/s 768 mmHg 72%
    02:00 -7°C° 0 mm 2 m/s 768 mmHg 73%
    03:00 -7°C° 0 mm 2 m/s 768 mmHg 76%
    04:00 -7°C° 0 mm 2 m/s 767 mmHg 78%
    05:00 -7°C° 0 mm 2 m/s 767 mmHg 81%
    06:00 -6°C° 0 mm 2 m/s 767 mmHg 80%
    07:00 -5°C° 0 mm 2 m/s 767 mmHg 80%
    08:00 -5°C° 0 mm 2 m/s 767 mmHg 79%
    09:00 -3°C° 0 mm 2 m/s 767 mmHg 75%
    10:00 -1°C° 0 mm 2 m/s 766 mmHg 70%
    11:00 +1°C° 0 mm 2 m/s 766 mmHg 66%
    12:00 +1°C° 0,1 mm 2 m/s 766 mmHg 68%
    13:00 +2°C° 0,1 mm 2 m/s 766 mmHg 69%
    14:00 +2°C° 0 mm 2 m/s 765 mmHg 72%
    15:00 +1°C° 0,1 mm 2 m/s 765 mmHg 75%
    16:00 -1°C° 0,1 mm 3 m/s 766 mmHg 78%
    17:00 -2°C° 0,1 mm 3 m/s 766 mmHg 82%
    18:00 -4°C° 0 mm 3 m/s 766 mmHg 79%
    19:00 -4°C° 0 mm 3 m/s 767 mmHg 76%
    20:00 -5°C° 0 mm 2 m/s 767 mmHg 76%
    21:00 -5°C° 0 mm 2 m/s 768 mmHg 74%
    22:00 -5°C° 0 mm 2 m/s 768 mmHg 71%
    23:00 -5°C° 0 mm 2 m/s 769 mmHg 69%

    Demain, 19 Décembre, Mardi

    Heure Température Précipitation Vent Pression Humidité
    00:00 -6°C° 0 mm 3 m/s 769 mmHg 66%
    01:00 -7°C° 0 mm 4 m/s 770 mmHg 63%
    02:00 -8°C° 0 mm 6 m/s 770 mmHg 60%
    03:00 -8°C° 0 mm 5 m/s 770 mmHg 58%
    04:00 -8°C° 0 mm 5 m/s 771 mmHg 56%
    05:00 -10°C° 0 mm 5 m/s 771 mmHg 54%
    06:00 -10°C° 0 mm 5 m/s 771 mmHg 55%
    07:00 -11°C° 0 mm 5 m/s 771 mmHg 55%
    08:00 -11°C° 0 mm 5 m/s 772 mmHg 56%
    09:00 -10°C° 0 mm 5 m/s 772 mmHg 53%
    10:00 -8°C° 0 mm 5 m/s 772 mmHg 50%
    11:00 -7°C° 0 mm 5 m/s 772 mmHg 48%
    12:00 -7°C° 0 mm 5 m/s 772 mmHg 48%
    13:00 -7°C° 0 mm 5 m/s 771 mmHg 47%
    14:00 -7°C° 0 mm 5 m/s 771 mmHg 47%
    15:00 -8°C° 0 mm 4 m/s 771 mmHg 50%
    16:00 -7°C° 0 mm 3 m/s 771 mmHg 54%
    17:00 -8°C° 0 mm 3 m/s 771 mmHg 57%
    18:00 -7°C° 0 mm 2 m/s 771 mmHg 57%
    19:00 -7°C° 0 mm 1 m/s 772 mmHg 57%
    20:00 -7°C° 0 mm 1 m/s 772 mmHg 57%
    21:00 -7°C° 0 mm 1 m/s 771 mmHg 56%
    22:00 -7°C° 0 mm 1 m/s 771 mmHg 55%
    23:00 -7°C° 0 mm 1 m/s 771 mmHg 54%

    Après-demain, 20 Décembre, Mercredi

    Heure Température Précipitation Vent Pression Humidité
    00:00 -8°C° 0 mm 2 m/s 771 mmHg 56%
    01:00 -8°C° 0 mm 2 m/s 770 mmHg 57%
    02:00 -9°C° 0 mm 3 m/s 770 mmHg 58%
    03:00 -8°C° 0,2 mm 3 m/s 769 mmHg 66%
    04:00 -8°C° 0,2 mm 3 m/s 769 mmHg 74%
    05:00 -8°C° 0,2 mm 3 m/s 768 mmHg 81%
    06:00 -7°C° 0,2 mm 3 m/s 768 mmHg 80%
    07:00 -7°C° 0,2 mm 3 m/s 768 mmHg 79%
    08:00 -6°C° 0,2 mm 3 m/s 768 mmHg 78%
    09:00 -5°C° 0,4 mm 3 m/s 768 mmHg 80%
    10:00 -4°C° 0,4 mm 3 m/s 768 mmHg 81%
    11:00 -3°C° 0,4 mm 2 m/s 768 mmHg 82%
    12:00 -2°C° 0,2 mm 2 m/s 767 mmHg 83%
    13:00 -2°C° 0,2 mm 2 m/s 767 mmHg 85%
    14:00 -2°C° 0,2 mm 2 m/s 767 mmHg 86%
    15:00 -2°C° 0 mm 2 m/s 767 mmHg 87%
    16:00 -3°C° 0 mm 2 m/s 768 mmHg 88%
    17:00 -4°C° 0 mm 2 m/s 768 mmHg 90%
    18:00 -5°C° 0 mm 2 m/s 769 mmHg 89%
    19:00 -5°C° 0 mm 2 m/s 769 mmHg 89%
    20:00 -6°C° 0 mm 2 m/s 770 mmHg 88%
    21:00 -4°C° 0 mm 1 m/s 770 mmHg 86%
    22:00 -4°C° 0 mm 1 m/s 770 mmHg 85%
    23:00 -6°C° 0 mm 1 m/s 770 mmHg 83%

    21 Décembre, Jeudi

    Heure Température Précipitation Vent Pression Humidité
    00:00 -6°C° 0 mm 1 m/s 770 mmHg 82%
    01:00 -6°C° 0 mm 1 m/s 770 mmHg 81%
    02:00 -6°C° 0 mm 1 m/s 770 mmHg 79%
    03:00 -6°C° 0 mm 1 m/s 770 mmHg 78%
    04:00 -6°C° 0 mm 1 m/s 770 mmHg 78%
    05:00 -6°C° 0 mm 1 m/s 770 mmHg 77%
    06:00 -6°C° 0 mm 1 m/s 771 mmHg 76%
    07:00 -6°C° 0 mm 1 m/s 771 mmHg 75%
    08:00 -4°C° 0 mm 1 m/s 771 mmHg 75%
    09:00 -3°C° 0 mm 1 m/s 771 mmHg 70%
    10:00 -1°C° 0 mm 1 m/s 771 mmHg 66%
    11:00 0°C° 0 mm 1 m/s 771 mmHg 62%
    12:00 +1°C° 0 mm 1 m/s 770 mmHg 63%
    13:00 +2°C° 0 mm 1 m/s 770 mmHg 65%
    14:00 +2°C° 0 mm 2 m/s 769 mmHg 66%
    15:00 +1°C° 0 mm 2 m/s 769 mmHg 70%
    16:00 -1°C° 0 mm 2 m/s 769 mmHg 73%
    17:00 -2°C° 0 mm 2 m/s 769 mmHg 77%
    18:00 -2°C° 0 mm 2 m/s 769 mmHg 79%
    19:00 -1°C° 0 mm 2 m/s 769 mmHg 81%
    20:00 -1°C° 0 mm 2 m/s 769 mmHg 82%
    21:00 -1°C° 0 mm 2 m/s 769 mmHg 83%
    22:00 -1°C° 0 mm 2 m/s 769 mmHg 84%
    23:00 -1°C° 0 mm 2 m/s 769 mmHg 85%

    22 Décembre, Vendredi

    Heure Température Précipitation Vent Pression Humidité
    00:00 +1°C° 0 mm 1 m/s 769 mmHg 84%
    01:00 +1°C° 0 mm 1 m/s 769 mmHg 84%
    02:00 +1°C° 0 mm 1 m/s 769 mmHg 84%
    03:00 +1°C° 0 mm 1 m/s 768 mmHg 83%
    04:00 +1°C° 0 mm 1 m/s 768 mmHg 83%
    05:00 +1°C° 0 mm 1 m/s 768 mmHg 82%
    06:00 +1°C° 0 mm 1 m/s 768 mmHg 82%
    07:00 -1°C° 0 mm 2 m/s 768 mmHg 82%
    08:00 -1°C° 0 mm 2 m/s 768 mmHg 81%
    09:00 +2°C° 0 mm 2 m/s 767 mmHg 81%
    10:00 +3°C° 0 mm 2 m/s 767 mmHg 80%
    11:00 +4°C° 0 mm 2 m/s 767 mmHg 79%
    12:00 +5°C° 0 mm 2 m/s 767 mmHg 79%
    13:00 +5°C° 0 mm 2 m/s 766 mmHg 79%
    14:00 +6°C° 0 mm 2 m/s 766 mmHg 79%
    15:00 +4°C° 0 mm 2 m/s 766 mmHg 81%
    16:00 +3°C° 0 mm 2 m/s 765 mmHg 83%
    17:00 +2°C° 0 mm 2 m/s 765 mmHg 85%
    18:00 +2°C° 0 mm 2 m/s 765 mmHg 85%
    19:00 +2°C° 0 mm 2 m/s 765 mmHg 85%
    20:00 +2°C° 0 mm 2 m/s 765 mmHg 85%
    21:00 +2°C° 0 mm 2 m/s 765 mmHg 85%
    22:00 +2°C° 0 mm 2 m/s 765 mmHg 85%
    23:00 +2°C° 0 mm 2 m/s 765 mmHg 84%

    23 Décembre, Samedi

    Heure Température Précipitation Vent Pression Humidité
    00:00 +2°C° 0 mm 2 m/s 765 mmHg 84%
    01:00 +2°C° 0 mm 1 m/s 765 mmHg 84%
    02:00 +2°C° 0 mm 1 m/s 764 mmHg 84%
    03:00 +2°C° 0 mm 1 m/s 764 mmHg 84%
    04:00 +2°C° 0 mm 1 m/s 764 mmHg 84%
    05:00 +2°C° 0 mm 1 m/s 763 mmHg 84%
    06:00 +2°C° 0 mm 1 m/s 764 mmHg 84%
    07:00 +2°C° 0 mm 1 m/s 764 mmHg 84%
    08:00 +3°C° 0 mm 1 m/s 764 mmHg 85%
    09:00 +4°C° 0 mm 1 m/s 764 mmHg 82%
    10:00 +5°C° 0 mm 1 m/s 763 mmHg 79%
    11:00 +6°C° 0 mm 1 m/s 763 mmHg 77%
    12:00 +5°C° 0 mm 2 m/s 763 mmHg 77%
    13:00 +5°C° 0 mm 2 m/s 762 mmHg 77%
    14:00 +5°C° 0 mm 2 m/s 762 mmHg 78%
    15:00 +3°C° 0 mm 2 m/s 762 mmHg 82%
    16:00 +3°C° 0 mm 1 m/s 762 mmHg 85%
    17:00 +2°C° 0 mm 1 m/s 762 mmHg 89%
    18:00 +1°C° 0 mm 1 m/s 762 mmHg 89%
    19:00 +1°C° 0 mm 1 m/s 762 mmHg 89%
    20:00 +1°C° 0 mm 1 m/s 762 mmHg 89%
    21:00 +1°C° 0 mm 1 m/s 762 mmHg 88%
    22:00 0°C° 0 mm 1 m/s 762 mmHg 87%
    23:00 0°C° 0 mm 1 m/s 762 mmHg 85%
    Voir plus